Weather History for Bow Valley, Alberta

Change the Weather History Date:

Friday, November 8, 2013

  Actual Average Record
Temperature  
Mean Temperature 26 °F -  
Max Temperature 39 °F - - ()
Min Temperature 12 °F - - ()
Degree Days  
Heating Degree Days 40    
Moisture  
Dew Point 22 °F    
Average Humidity 79    
Maximum Humidity 95    
Minimum Humidity 49    
Precipitation  
Precipitation 0.04 in - - ()
Sea Level Pressure  
Sea Level Pressure 29.83 in    
Wind  
Wind Speed 4 mph ()    
Max Wind Speed 9 mph    
Max Gust Speed 18 mph    
T = Trace of Precipitation, MM = Missing Value Source: Averaged Metar Reports

Daily Weather History Graph

Daily Weather History Graph

Search for Another Location

Airport:

Trip Planner

Search our weather history database for the weather conditions in past years. The results will help you decide how hot, cold, wet, or windy it might be!

Date:

Astronomy

Nov. 08, 2013 Rise Set
Actual Time 7:45 AM MST 5:01 PM MST
Civil Twilight 7:09 AM MST 5:37 PM MST
Nautical Twilight 6:30 AM MST 6:17 PM MST
Astronomical Twilight 5:51 AM MST 6:55 PM MST
Moon 12:44 PM MST (11/8) 10:30 PM MST (11/8)
Length of Visible Light 10h 27m
Length of Day
9h 16m
Waxing Crescent, 34% of the Moon is Illuminated
Nov 8
Waxing Crescent
Nov 9
First Quarter
Nov 17
Full
Nov 25
Last Quarter
Dec 2
New

Hourly Weather History & Observations

Time (MST) Temp. Windchill Dew Point Humidity Pressure Visibility Wind Dir Wind Speed Gust Speed Precip Events Conditions
12:00 AM 34.9 °F 29.0 °F 25.2 °F 68% 29.55 in - WSW 6.9 mph - N/A   Unknown
1:00 AM 36.5 °F 31.0 °F 25.9 °F 65% 29.57 in - WSW 6.9 mph - N/A   Unknown
2:00 AM 38.8 °F 34.6 °F 24.8 °F 57% 29.57 in - WSW 5.8 mph - N/A   Unknown
3:00 AM 38.5 °F 32.1 °F 24.6 °F 58% 29.60 in - WSW 9.2 mph 18.4 mph N/A   Unknown
4:00 AM 38.7 °F 33.6 °F 24.3 °F 56% 29.62 in - WSW 6.9 mph - N/A   Unknown
5:00 AM 37 °F - 25 °F 49% 29.65 in - West 6.9 mph - -  
5:00 AM 37.2 °F 31.9 °F 24.6 °F 60% 29.65 in - West 6.9 mph - N/A   Unknown
6:00 AM 36.3 °F 32.5 °F 25.0 °F 63% 29.68 in - WSW 4.6 mph - N/A   Unknown
7:00 AM 31.6 °F 27.0 °F 23.9 °F 73% 29.72 in - East 4.6 mph - N/A   Unknown
8:00 AM 29.8 °F - 23.9 °F 79% 29.76 in - WNW 2.3 mph - N/A   Unknown
9:00 AM 30.0 °F - 24.8 °F 81% 29.79 in - WNW 1.2 mph - N/A   Unknown
10:00 AM 30.2 °F 26.7 °F 26.1 °F 85% 29.81 in - NNE 3.5 mph - N/A   Unknown
11:00 AM 29 °F - 27 °F 87% 29.84 in - NNE 3.5 mph - -  
11:00 AM 29.3 °F 25.6 °F 26.6 °F 90% 29.84 in - NNE 3.5 mph - N/A   Unknown
12:00 PM 27.9 °F - 25.9 °F 92% 29.84 in - NE 2.3 mph - 0.05 in   Unknown
1:00 PM 28.0 °F 22.8 °F 25.5 °F 90% 29.84 in - ENE 4.6 mph - N/A   Unknown
2:00 PM 29.1 °F - 25.7 °F 87% 29.86 in - NNE 2.3 mph - N/A   Unknown
3:00 PM 30.0 °F - 25.2 °F 82% 29.87 in - NNW 1.2 mph - N/A   Unknown
4:00 PM 28.8 °F - 24.4 °F 84% 29.91 in - Calm Calm - N/A   Unknown
5:00 PM 28 °F - 25 °F 82% 29.93 in - WSW 1.2 mph - -  
5:00 PM 27.7 °F - 24.6 °F 88% 29.93 in - WSW 1.2 mph - N/A   Unknown
6:00 PM 22.1 °F - 20.5 °F 93% 29.99 in - WSW 1.2 mph - N/A   Unknown
7:00 PM 18.0 °F - 16.7 °F 95% 30.03 in - SSW 1.2 mph - N/A   Unknown
8:00 PM 14.7 °F - 12.7 °F 92% 30.05 in - Calm Calm - N/A   Unknown
9:00 PM 12.4 °F - 10.6 °F 92% 30.07 in - WNW 1.2 mph - N/A   Unknown
10:00 PM 14.7 °F - 12.9 °F 93% 30.09 in - East 1.2 mph - N/A   Unknown
11:00 PM 13 °F - 10 °F 84% 30.10 in - South 1.2 mph - -  
11:00 PM 12.6 °F - 10.4 °F 91% 30.10 in - South 1.2 mph - N/A   Unknown